Regional Weather Roundup
Issued by NWS

Home | Current Version | Previous Version | Graphics & Text | Print | Product List | Glossary Off
Versions: 1 2 3 4 5 6 7 8 9 10 11 12 13 14 15 16 17 18 19 20 21 22 23 24 25 26 27 28 29 30 31 32 33 34 35 36 37 38 39 40 41 42 43 44 45 46 47 48 49 50

000
ASUS43 KLSX 271859
RWRMO

WEATHER SUMMARY FOR MISSOURI
NATIONAL WEATHER SERVICE SPRINGFIELD MO
100 PM CST FRI FEB 27 2015

NOTE: "FAIR" INDICATES FEW OR NO CLOUDS BELOW 12,000 FEET WITH NO
       SIGNIFICANT WEATHER AND/OR OBSTRUCTIONS TO VISIBILITY.
       CURRENT SKY AND/OR WEATHER CONDITIONS ARE NOT AVAILABLE FOR
       CHILLICOTHE AND FARMINGTON.

MOZ001>031-035>038-043-044-053-054-272000-
...NORTHERN AND WESTERN MISSOURI...

CITY           SKY/WX    TMP DP  RH WIND       PRES   REMARKS
KANSAS CTY INT CLOUDY    14   0  53 N6        30.59F WCI   5
KANSAS C DTWN  PTSUNNY   16  -1  47 CALM      30.62F
LEE`S SUMMIT   PTSUNNY   16  -1  47 VRB3      30.60F
ST JOSEPH      SUNNY     16   0  49 N5        30.63F WCI   9
CHILLICOTHE      N/A     14   0  53 CALM      30.66F
KIRKSVILLE     SUNNY     13   0  56 CALM      30.62F

$$
MOZ066>068-077>081-088>096-101>105-272000-
...SOUTHWEST MISSOURI...

CITY           SKY/WX    TMP DP  RH WIND       PRES   REMARKS
SPRINGFIELD    PTSUNNY   19   2  47 CALM      30.54F
JOPLIN         PTSUNNY   20   2  45 E9        30.58F WCI   9

$$
MOZ032>034-039>042-045>050-055>058-069>072-272000-
...CENTRAL MISSOURI...

CITY           SKY/WX    TMP DP  RH WIND       PRES   REMARKS
COLUMBIA       SUNNY     17   0  47 CALM      30.62F
JEFFERSON CITY SUNNY     18  -2  41 VRB5      30.65F WCI  11
ROLLA          SUNNY     17  -2  43 VRB5      30.56F WCI  10
SEDALIA        MOSUNNY   18   1  47 CALM      30.61F
OSAGE BEACH    MOSUNNY   18   0  45 E5        30.59F WCI  11

$$
MOZ051-052-059>065-272000-
...EAST CENTRAL MISSOURI...

CITY           SKY/WX    TMP DP  RH WIND       PRES   REMARKS
ST LOUIS INTL  MOSUNNY   16   1  51 NW7       30.65F WCI   6
SPIRIT OF STL  MOSUNNY   17  -1  45 CALM      30.65F
ST CHARLES     SUNNY     13   0  56 SE3       30.66F

$$
MOZ072>076-082>087-097>100-106>115-272000-
...SOUTH CENTRAL AND SOUTHEAST MISSOURI...

CITY           SKY/WX    TMP DP  RH WIND       PRES   REMARKS
CAPE GIRARDEAU SUNNY     22   7  52 N6        30.63S WCI  14
FARMINGTON     SUNNY     18   1  49 NW6       30.61F WCI   9
POPLAR BLUFF   SUNNY     20   7  57 E9        30.62F WCI   9
WEST PLAINS    CLOUDY    19   1  45 NE8       30.53F WCI   9

$$



USA.gov is the U.S. government's official web portal to all federal, state and local government web resources and services.